Погода в Кашуэйре-Паулисте

Бразилия     22°40′12″S   45°00′25″W
темп.,
°C
ветер,
м/с
пор.,
м/с
влажн.,
%
обл.,
%
осадки,
мм/ч
давл.,
гПа
погр.,
м
27 февраля, сб
сб2700:00+18св1296100 0.0 101561
03:00+17всв1297100 0.0 101484
06:00+18всв249695 0.0 1014142
09:00+20св469397 0.8 1016385
12:00+19всв1296100 3.0 1016133
15:00+21всв2593100 4.0 1014218
18:00+19св2494100 0.2 1014101
21:00+18в1193100 0.3 101525
28 февраля, вс
вс2800:00+17всв1194100 0.0 101523
03:00+16всв119580 0.0 101423
06:00+15всв129574 0.0 101532
09:00+21св258468 0.0 1015430
12:00+25св3379100 1.6 1015625
15:00+23всв2485100 4.8 1012302
18:00+21всв239099 2.1 101257
21:00+18всв119499 2.7 101423
1 марта, пн
пн100:00+17всв119583 0.0 101524
03:00+16в129576 0.0 101326
06:00+16всв229548 0.0 101434
09:00+22св248552 0.0 1015319
12:00+27св236216 0.0 1014847
15:00+27всв33668 0.3 1011955
18:00+22всв24883 1.3 101193
21:00+18в119319 1.4 101423
2 марта, вт
вт200:00+18в11939 0.0 101423
03:00+17всв229539 0.0 101346
06:00+17св229586 0.0 101545
09:00+23ссв237973 0.0 1016447
12:00+27св2363100 0.0 1015978
15:00+28в1259100 0.3 10131244
18:00+22всв2288100 1.6 101333
21:00+19в1193100 1.6 101523
3 марта, ср
ср300:00+18всв119383 0.0 101623
03:00+18всв129491 0.0 101523
06:00+17всв229484 0.0 101640
09:00+23св237950 0.0 1017384
12:00+27ссв235891 0.0 10161431
15:00+28з225889 0.3 10141543
18:00+22вюв2290100 3.3 101462
21:00+19св3796100 4.3 1016257